Home > Weather > Río Gallegos > Past weeks

Flag for Argentina Past Weather in Río Gallegos, Santa Cruz, Argentina — Yesterday and Last 2 Weeks

Now
30 °F

Clear.


Feels Like: 24 °F
Forecast: 28 / 40 °F
Wind: 6 mph from Northwest

Location: Rio Gallegos Aerodrome

Current Time: Jul 2, 2016 at 6:39:01 AM

Latest Report: Jul 2, 2016 at 6:00 AM


Visibility: 10 mi

Pressure: 30.21 "Hg

Humidity: 93%

Dew Point: 28 °F

Location of Río GallegosLocation

Past Weather in Río Gallegos — Graph

°F

Río Gallegos Temperature Yesterday

Maximum temperature yesterday: 41 °F (at 1:00 PM)
Minimum temperature yesterday: 36 °F (at 7:00 AM)
Average temperature yesterday: 38 °F

High & Low Weather Summary for the Past Weeks

 TemperatureHumidityPressure
High57 °F (Jun 26, 4:00 PM)100% (Jun 28, 5:00 AM)30.24 "Hg (Jun 28, 5:00 AM)
Low25 °F (Jun 19, 9:00 AM)43% (Jun 30, 4:00 PM)29.33 "Hg (Jun 29, 1:00 AM)
Average41 °F74%29.82 "Hg
* Reported Jun 17 5:00 AM — Jul 2 5:00 AM, Río Gallegos, Weather by CustomWeather, © 2016

Note: Actual official high and low records may vary slightly from our data, if they occured in-between our weather recording intervals... More about our weather records

Advertising

Río Gallegos Weather History for the Previous 24 Hours

Scroll right to see more
 ConditionsComfort  
Time TempWeatherWind HumidityBarometerVisibility
5:00 AM
Sat, Jul 2
30 °FPassing clouds.6 mph100%30.21 "HgN/A
4:00 AM32 °FPassing clouds.6 mph87%30.21 "HgN/A
3:00 AM32 °FPassing clouds.5 mph87%30.21 "HgN/A
2:00 AM32 °FClear.7 mph87%30.21 "Hg10 mi
1:00 AM34 °FPassing clouds.3 mph87%30.21 "HgN/A
12:00 AM36 °FPassing clouds.3 mph81%30.21 "HgN/A
11:00 PM
Fri, Jul 1
36 °FPassing clouds.3 mph87%30.18 "HgN/A
10:00 PM37 °FOvercast.3 mph75%30.18 "HgN/A
8:00 PM37 °FPassing clouds.5 mph87%30.15 "HgN/A
7:00 PM37 °FPassing clouds.5 mph81%30.12 "HgN/A
6:00 PM39 °FRain. Passing clouds.6 mph70%30.12 "HgN/A
5:00 PM41 °FPassing clouds.6 mph66%30.09 "HgN/A
4:00 PM41 °FScattered clouds.7 mph66%30.09 "HgN/A
3:00 PM41 °FScattered clouds.10 mph76%30.07 "HgN/A
2:00 PM41 °FScattered clouds.10 mph70%30.07 "HgN/A
1:00 PM41 °FScattered clouds.9 mph76%30.07 "HgN/A
12:00 PM37 °FScattered clouds.10 mph87%30.07 "HgN/A
11:00 AM37 °FPartly sunny.9 mph87%30.04 "HgN/A
10:00 AM36 °FLight rain. Partly sunny.7 mph81%30.01 "HgN/A
9:00 AM36 °FSunny.9 mph81%29.98 "Hg10 mi
8:00 AM36 °FClear.13 mph81%29.95 "Hg10 mi
7:00 AM36 °FClear.12 mph81%29.92 "Hg10 mi
6:00 AM37 °FClear.16 mph65%29.92 "Hg10 mi
Weather by CustomWeather, © 2016

See weather overviewHow to use our weather pages